TimeMST,TemperatureF,Dew PointF,Humidity,Sea Level PressureIn,VisibilityMPH,Wind Direction,Wind SpeedMPH,Gust SpeedMPH,PrecipitationIn,Events,Conditions,WindDirDegrees,DateUTC
12:55 AM,36.0,23.0,59,29.91,10.0,WNW,8.1,-,N/A,,Clear,290,2011-11-28 07:55:00
1:55 AM,33.1,21.9,64,29.92,10.0,WNW,4.6,-,N/A,,Clear,290,2011-11-28 08:55:00
2:55 AM,37.9,23.0,55,29.91,10.0,West,9.2,-,N/A,,Clear,270,2011-11-28 09:55:00
3:55 AM,37.0,23.0,57,29.93,10.0,West,6.9,-,N/A,,Clear,260,2011-11-28 10:55:00
4:55 AM,37.9,24.1,57,29.95,10.0,West,5.8,-,N/A,,Clear,260,2011-11-28 11:55:00
5:55 AM,36.0,24.1,62,30.00,10.0,WSW,8.1,-,N/A,,Clear,250,2011-11-28 12:55:00
6:55 AM,39.0,25.0,57,30.02,10.0,West,5.8,-,N/A,,Clear,280,2011-11-28 13:55:00
7:55 AM,39.9,26.1,58,30.07,10.0,West,8.1,-,N/A,,Clear,270,2011-11-28 14:55:00
8:55 AM,57.9,27.0,31,30.09,10.0,NNW,11.5,-,N/A,,Clear,330,2011-11-28 15:55:00
9:55 AM,55.9,26.1,32,30.14,10.0,NNW,19.6,25.3,N/A,,Clear,330,2011-11-28 16:55:00
10:55 AM,57.0,27.0,32,30.17,10.0,NW,12.7,-,N/A,,Clear,320,2011-11-28 17:55:00
11:55 AM,57.0,28.0,33,30.19,10.0,NW,16.1,20.7,N/A,,Clear,320,2011-11-28 18:55:00
12:55 PM,55.0,30.0,38,30.22,10.0,NNW,17.3,24.2,N/A,,Clear,340,2011-11-28 19:55:00
1:55 PM,55.0,30.0,38,30.25,10.0,North,15.0,-,N/A,,Clear,360,2011-11-28 20:55:00
2:55 PM,50.0,30.9,48,30.29,10.0,North,11.5,-,N/A,,Partly Cloudy,360,2011-11-28 21:55:00
3:55 PM,46.0,28.0,50,30.32,10.0,North,11.5,-,N/A,,Clear,360,2011-11-28 22:55:00
4:55 PM,37.9,26.1,62,30.36,10.0,NNW,9.2,-,N/A,,Clear,330,2011-11-28 23:55:00
5:55 PM,30.0,24.1,79,30.39,10.0,NNW,5.8,-,N/A,,Clear,330,2011-11-29 00:55:00
6:55 PM,26.1,21.9,84,30.40,10.0,WNW,6.9,-,N/A,,Clear,300,2011-11-29 01:55:00
7:55 PM,28.0,21.9,78,30.40,10.0,West,3.5,-,N/A,,Clear,270,2011-11-29 02:55:00
8:55 PM,28.0,21.0,75,30.39,10.0,WNW,5.8,-,N/A,,Clear,290,2011-11-29 03:55:00
9:55 PM,25.0,19.0,78,30.40,10.0,WNW,5.8,-,N/A,,Clear,290,2011-11-29 04:55:00
10:55 PM,25.0,19.0,78,30.41,10.0,West,6.9,-,N/A,,Clear,270,2011-11-29 05:55:00
11:55 PM,24.1,18.0,77,30.41,10.0,West,5.8,-,N/A,,Clear,270,2011-11-29 06:55:00